Regional Weather Roundup
Issued by NWS Newport/Morehead, NC

Current Version | Previous Version | Graphics & Text | Print | Product List | Glossary On
Versions: 1 2 3 4 5 6 7 8 9 10 11 12 13 14 15 16 17 18 19 20 21 22 23 24 25 26 27 28 29 30 31 32 33 34 35 36 37 38 39 40 41 42 43 44 45 46 47 48 49 50
000
ASUS42 KMHX 201912
RWRMHX
WEATHER ROUNDUP FOR EASTERN NORTH CAROLINA
NATIONAL WEATHER SERVICE NEWPORT/MOREHEAD CITY NC
300 PM EDT MON APR 20 2015

NOTE: "FAIR" INDICATES FEW OR NO CLOUDS BELOW 12,000 FEET
WITH NO SIGNIFICANT WEATHER AND/OR OBSTRUCTIONS TO VISIBILITY

NCZ015>017-031-032-045>047-102-103-202000-
NORTH COAST

CITY           SKY/WX    TMP DP  RH WIND       PRES   REMARKS
EDENTON        SUNNY     78  63  60 SW13      29.73F
ELIZABETH CITY MOSUNNY   77  65  66 SW17G23   29.72S
KITTY HAWK     PTCLDY    80  63  56 SW12G17   29.72S
MANTEO         MOSUNNY   77  63  60 W15G22    29.73F

$$

NCZ045>047-081-094-103-104-202000-
CENTRAL COAST

CITY           SKY/WX    TMP DP  RH WIND       PRES   REMARKS
FRISCO         SUNNY     71  64  78 SW13G20   29.77F
SWANQUARTER    NOT AVBL

$$

NCZ095-097-098-100-101-202000-
SOUTHERN COAST

CITY           SKY/WX    TMP DP  RH WIND       PRES   REMARKS
BEAUFORT       SUNNY     71  66  84 SW17      29.80S
CEDAR ISLAND     N/A     79 N/A N/A S15G23    29.82R
JACKSONVILLE   PTSUNNY   80  63  55 S12       29.76F
PINEY ISLAND   CLEAR    N/A N/A N/A SW17G28   29.77R
WILMINGTON     CLOUDY    78  65  63 S10       29.78F


$$

NCZ011>013-027>030-043-044-078>080-089-090>093-098-202000-
COASTAL PLAIN

CITY           SKY/WX    TMP DP  RH WIND       PRES   REMARKS
AHOSKIE        MOSUNNY   77  62  60 S13       29.69F
CLINTON        PTSUNNY   78  65  63 S8        29.74F
ELIZABETHTOWN  CLOUDY    78  63  60 S8G16     29.76F
GOLDSBORO      MOSUNNY   79  63  57 SW16G22   29.70F
GREENVILLE     SUNNY     79  63  57 SW15G23   29.75F
HAVELOCK       SUNNY     78  64  61 S15G22    29.78F
KENANSVILLE    PTSUNNY   79  60  52 SW5       29.76F
KINSTON        MOSUNNY   81  61  50 SW13      29.74F
NEW BERN       MOSUNNY   81  62  52 SW13G22   29.76F
RICHLANDS      PTSUNNY   81  61  50 S14       29.76F
ROCKY MOUNT    MOSUNNY   79  63  57 SW16G22   29.70F
WASHINGTON     SUNNY     78  63  58 SW12G22   29.73F
WHITEVILLE     CLOUDY    77  63  61 S10       29.77F

$$

AMZ130-135-150-152-154-156-158-170-250-252-270-ANZ085-086-088-633-658-670-202000-
MARINE OBSERVATIONS

STATION/POSITION TIME  TEMP    WIND        PRES    WAVE   SWELL
                       AIR SEA DIR/SP/G            HT/PER HT/PER
                 (UTC) (F)     (DEG/KT/KT) (MB)    (FT/S) (FT/S)
CHESAPEAKE LIGHT 1900   66     200/ 23/ 23 1005.1
64 E VA BEACH    1850   60 58  200/ 12/ 14 1006.5    9/ 8   8/ 8
DUCK             1800   72 48  250/ 12/ 18 1005.9
2 E DUCK         1811      54                N/A     5/ 9   2/11
10 NE DUCK       NOT AVBL
OREGON INLET     1800   69 65  200/ 18/ 22 1007.6
HATTERAS CG      1800   72 67  210/ 12/ 16 1008.0
DIAMOND BUOY     1850   71 73  220/ 19/ 23 1008.1    6/ 7   3/ 7
CAPE LOOKOUT     1900   71     220/ 14/ 17 1008.7
BEAUFORT LAB     1800   70 65  220/ 11/ 15 1008.3
27 SE WRIGHTSVLE 1800   67 71  250/ 16/ 19   N/A
5 SE WRIGHTSVLE  1800   68 65  220/ 16/ 21 1009.3
225 S CAPE HAT   1850   70 72  250/  8/ 12 1012.8    4/ 5   3/ 5
41 SE CHARLESTON 1850   70 74  230/ 16/ 19 1009.6    4/ 5   2/ 9

$$


USA.gov is the U.S. government's official web portal to all federal, state and local government web resources and services.